Location: Mascot Post Office (historical)
(40.2645°N, 99.5462°W)
Time: 01:38:25
(UTC+00:00)

Resurs 1-4 Rocket - Pass Details

Date: 14 July 2020
Orbit: 799 x 814 km, 98.6° (Epoch: 14 August)

Event Time Altitude Azimuth Distance (km) Brightness Sun altitude
Rises 08:08:06 0° 14° (NNE) 3,344 6.7 -25.1°
Reaches altitude 10° 08:10:28 10° 16° (NNE) 2,406 5.6 -25.0°
Maximum altitude 08:15:48 77° 102° (ESE) 835 2.1 -24.6°
Enters shadow 08:16:39 62° 167° (SSE) 911 2.1 -24.5°
